KC9DK Weather Reports


Display with metric or nautical units.
time (UTC)temp
F
wind
direction
speed
MPH
gust
MPH
rain 1hr
in
rain 24hr
in
rain mn
in
humidity
%
barometer
mb
20260905195753 104 185 0.0 1.0 0.00 0.00 0.00 35 1012.4
20260905195248 103 196 1.0 2.0 0.00 0.00 0.00 39 1012.4
20260905194744 104 232 3.0 3.0 0.00 0.00 0.00 35 1012.3
20260905194243 104 237 3.0 3.0 0.00 0.00 0.00 36 1012.6
20260905193743 103 201 1.0 2.0 0.00 0.00 0.00 37 1012.3
20260905193238 103 219 4.0 5.0 0.00 0.00 0.00 35 1012.6
20260905192733 104 267 5.0 7.0 0.00 0.00 0.00 35 1012.9
20260905192230 104 213 1.0 1.0 0.00 0.00 0.00 39 1012.8
20260905191729 105 210 3.0 3.0 0.00 0.00 0.00 35 1012.8
20260905191227 105 213 3.0 5.0 0.00 0.00 0.00 35 1013.0
20260905190726 104 191 1.0 1.0 0.00 0.00 0.00 39 1013.2
20260905190225 103 172 2.0 2.0 0.00 0.00 0.00 36 1013.3
20260905185724 104 216 1.0 2.0 0.00 0.00 0.00 39 1013.1
20260905185219 103 199 2.0 2.0 0.00 0.00 0.00 39 1013.4
20260905184719 102 218 3.0 3.0 0.00 0.00 0.00 40 1013.2
20260905184218 102 193 2.0 2.0 0.00 0.00 0.00 40 1013.3
20260905183712 102 214 1.0 1.0 0.00 0.00 0.00 41 1013.4
20260905183207 103 212 1.0 2.0 0.00 0.00 0.00 37 1013.4
20260905182707 103 190 1.0 2.0 0.00 0.00 0.00 40 1013.4
20260905182206 103 186 0.0 1.0 0.00 0.00 0.00 41 1013.6
20260905181702 102 235 2.0 2.0 0.00 0.00 0.00 40 1013.6
20260905181201 101 185 1.0 2.0 0.00 0.00 0.00 44 1013.6
20260905180655 101 33 2.0 2.0 0.00 0.00 0.00 43 1013.7
20260905180151 101 98 1.0 1.0 0.00 0.00 0.00 39 1013.8
20260905175650 100 184 1.0 1.0 0.00 0.00 0.00 43 1013.9
20260905175146 100 231 3.0 5.0 0.00 0.00 0.00 40 1013.9
20260905174641 100 204 3.0 3.0 0.00 0.00 0.00 44 1014.0
20260905174137 99 187 1.0 1.0 0.00 0.00 0.00 47 1013.8
20260905173632 99 179 0.0 0.0 0.00 0.00 0.00 46 1013.8
20260905173128 100 190 1.0 2.0 0.00 0.00 0.00 44 1014.0
20260905172627 99 206 2.0 2.0 0.00 0.00 0.00 46 1014.4
20260905172122 100 189 1.0 1.0 0.00 0.00 0.00 46 1014.3
20260905171618 100 188 2.0 2.0 0.00 0.00 0.00 48 1014.2
20260905171114 100 205 1.0 2.0 0.00 0.00 0.00 45 1014.3
20260905170610 100 184 2.0 2.0 0.00 0.00 0.00 45 1014.3
20260905170105 101 186 2.0 2.0 0.00 0.00 0.00 41 1014.4
20260905165600 100 182 1.0 1.0 0.00 0.00 0.00 47 1014.7
20260905165055 101 293 3.0 5.0 0.00 0.00 0.00 42 1014.6
20260905164550 99 182 0.0 0.0 0.00 0.00 0.00 49 1014.5
20260905164044 100 262 1.0 2.0 0.00 0.00 0.00 46 1014.7
20260905163540 99 175 1.0 1.0 0.00 0.00 0.00 50 1014.8
20260905163036 99 172 1.0 1.0 0.00 0.00 0.00 49 1014.9
20260905162532 98 201 1.0 1.0 0.00 0.00 0.00 50 1015.2
20260905162021 100 304 3.0 5.0 0.00 0.00 0.00 45 1015.3
20260905161521 99 197 2.0 2.0 0.00 0.00 0.00 49 1015.1
20260905161018 99 194 3.0 3.0 0.00 0.00 0.00 49 1015.2
20260905160512 99 170 1.0 2.0 0.00 0.00 0.00 53 1015.2
20260905160011 100 187 0.0 0.0 0.00 0.00 0.00 52 1015.2
20260905155506 100 199 1.0 2.0 0.00 0.00 0.00 49 1015.4
20260905155004 99 184 1.0 1.0 0.00 0.00 0.00 48 1015.4
20260905154500 99 174 0.0 1.0 0.00 0.00 0.00 49 1015.2
20260905153955 99 197 1.0 1.0 0.00 0.00 0.00 52 1015.3
20260905153452 99 208 3.0 3.0 0.00 0.00 0.00 51 1015.3
20260905152951 97 182 0.0 0.0 0.00 0.00 0.00 56 1015.2
20260905152451 96 209 1.0 1.0 0.00 0.00 0.00 56 1015.3
20260905151946 96 236 1.0 1.0 0.00 0.00 0.00 54 1015.1
20260905151441 96 200 1.0 1.0 0.00 0.00 0.00 52 1015.2
20260905150936 96 180 0.0 0.0 0.00 0.00 0.00 57 1015.2
20260905150437 95 184 0.0 0.0 0.00 0.00 0.00 57 1015.3
20260905145933 94 188 1.0 1.0 0.00 0.00 0.00 57 1015.3
20260905145427 93 233 0.0 1.0 0.00 0.00 0.00 60 1015.2
20260905144927 93 185 0.0 0.0 0.00 0.00 0.00 63 1015.2
20260905144423 94 207 3.0 5.0 0.00 0.00 0.00 56 1015.3
20260905143921 93 184 0.0 0.0 0.00 0.00 0.00 62 1015.2
20260905143415 92 188 1.0 2.0 0.00 0.00 0.00 59 1015.0
20260905142915 90 185 0.0 0.0 0.00 0.00 0.00 65 1015.3
20260905142414 89 221 1.0 2.0 0.00 0.00 0.00 66 1015.2
20260905141910 88 193 1.0 1.0 0.00 0.00 0.00 67 1015.3
20260905141405 88 186 0.0 1.0 0.00 0.00 0.00 69 1015.2
20260905140901 87 190 1.0 1.0 0.00 0.00 0.00 68 1015.0
20260905140355 88 193 2.0 2.0 0.00 0.00 0.00 68 1015.1
20260905135854 88 183 1.0 1.0 0.00 0.00 0.00 68 1015.4
20260905135350 88 186 0.0 1.0 0.00 0.00 0.00 68 1015.3
20260905134846 88 188 1.0 1.0 0.00 0.00 0.00 67 1015.4
20260905134344 89 187 0.0 0.0 0.00 0.00 0.00 67 1015.3
20260905133839 89 196 0.0 0.0 0.00 0.00 0.00 66 1015.3
20260905133334 89 181 0.0 0.0 0.00 0.00 0.00 65 1015.7
20260905132833 89 178 0.0 0.0 0.00 0.00 0.00 65 1015.5
20260905132329 88 178 0.0 0.0 0.00 0.00 0.00 65 1015.4
20260905131823 89 180 0.0 0.0 0.00 0.00 0.00 68 1015.5
20260905131319 89 175 0.0 0.0 0.00 0.00 0.00 67 1015.4
20260905130814 87 180 0.0 0.0 0.00 0.00 0.00 69 1015.4
20260905130312 86 180 0.0 0.0 0.00 0.00 0.00 71 1015.5
20260905125808 86 186 0.0 0.0 0.00 0.00 0.00 70 1015.4
20260905125305 86 187 0.0 0.0 0.00 0.00 0.00 72 1015.4
20260905124759 86 187 0.0 0.0 0.00 0.00 0.00 71 1015.5
20260905124255 85 187 0.0 0.0 0.00 0.00 0.00 74 1015.3
20260905123750 82 187 0.0 0.0 0.00 0.00 0.00 76 1015.4
20260905123247 81 187 0.0 0.0 0.00 0.00 0.00 79 1015.4
20260905122747 80 187 0.0 0.0 0.00 0.00 0.00 80 1015.4
20260905122246 80 172 0.0 0.0 0.00 0.00 0.00 81 1015.3
20260905121741 78 165 0.0 0.0 0.00 0.00 0.00 82 1015.3
20260905121238 77 172 0.0 0.0 0.00 0.00 0.00 85 1015.3
20260905120736 77 176 0.0 0.0 0.00 0.00 0.00 85 1015.2
20260905120231 77 176 0.0 0.0 0.00 0.00 0.00 86 1015.1
20260905115726 77 176 0.0 0.0 0.00 0.00 0.00 85 1014.9
20260905115225 77 176 0.0 0.0 0.00 0.00 0.00 85 1015.2
20260905114721 77 176 0.0 0.0 0.00 0.00 0.00 84 1015.0
20260905114219 77 176 0.0 0.0 0.00 0.00 0.00 84 1015.1
20260905113719 77 176 0.0 0.0 0.00 0.00 0.00 84 1014.9
20260905113215 77 176 0.0 0.0 0.00 0.00 0.00 84 1014.8
20260905112715 77 176 0.0 0.0 0.00 0.00 0.00 83 1014.6
20260905112210 77 176 0.0 0.0 0.00 0.00 0.00 83 1014.7
20260905111709 77 176 0.0 0.0 0.00 0.00 0.00 83 1014.7
20260905111209 77 175 0.0 0.0 0.00 0.00 0.00 84 1014.8
20260905110709 77 175 0.0 0.0 0.00 0.00 0.00 83 1014.7
20260905110203 78 165 0.0 0.0 0.00 0.00 0.00 82 1014.7
20260905105659 77 154 0.0 0.0 0.00 0.00 0.00 83 1014.8
20260905105157 77 176 0.0 0.0 0.00 0.00 0.00 82 1014.5
20260905104652 78 176 0.0 0.0 0.00 0.00 0.00 82 1014.7
20260905104149 78 176 0.0 0.0 0.00 0.00 0.00 82 1014.5
20260905103643 78 176 0.0 0.0 0.00 0.00 0.00 82 1014.5
20260905103139 78 176 0.0 0.0 0.00 0.00 0.00 82 1014.4
20260905102635 77 176 0.0 0.0 0.00 0.00 0.00 83 1014.4
20260905102131 78 176 0.0 0.0 0.00 0.00 0.00 85 1014.7
20260905101629 78 176 0.0 0.0 0.00 0.00 0.00 83 1014.7
20260905101128 78 169 0.0 0.0 0.00 0.00 0.00 82 1014.5
20260905100625 78 169 0.0 0.0 0.00 0.00 0.00 82 1014.5
20260905100120 78 167 0.0 0.0 0.00 0.00 0.00 82 1014.5
20260905095619 78 162 0.0 0.0 0.00 0.00 0.00 84 1014.3
20260905095114 78 168 0.0 0.0 0.00 0.00 0.00 84 1014.4
20260905094610 77 175 0.0 0.0 0.00 0.00 0.00 84 1014.2
20260905094108 77 187 0.0 0.0 0.00 0.00 0.00 85 1014.3
20260905093603 78 187 0.0 0.0 0.00 0.00 0.00 85 1014.1
20260905093059 78 187 0.0 0.0 0.00 0.00 0.00 85 1014.2
20260905092559 78 187 0.0 0.0 0.00 0.00 0.00 84 1014.1
20260905092055 78 194 0.0 0.0 0.00 0.00 0.00 83 1014.0
20260905091554 78 194 0.0 1.0 0.00 0.00 0.00 83 1014.1
20260905091049 78 201 1.0 1.0 0.00 0.00 0.00 83 1014.2
20260905090549 78 200 0.0 1.0 0.00 0.00 0.00 84 1014.0
20260905090044 78 192 0.0 0.0 0.00 0.00 0.00 85 1014.1
20260905085542 78 189 0.0 1.0 0.00 0.00 0.00 86 1013.9
20260905085038 78 187 0.0 0.0 0.00 0.00 0.00 84 1014.0
20260905084538 78 186 0.0 0.0 0.00 0.00 0.00 84 1014.0
20260905084033 78 186 0.0 0.0 0.00 0.00 0.00 84 1014.0
20260905083528 79 186 0.0 0.0 0.00 0.00 0.00 83 1014.1
20260905083025 79 187 0.0 0.0 0.00 0.00 0.00 82 1014.0
20260905082519 79 193 1.0 1.0 0.00 0.00 0.00 81 1014.1
20260905082015 78 191 1.0 1.0 0.00 0.00 0.00 82 1014.1
20260905081509 78 185 1.0 1.0 0.00 0.00 0.00 84 1014.2
20260905081003 78 176 0.0 0.0 0.00 0.00 0.00 85 1014.1
20260905080458 78 176 0.0 0.0 0.00 0.00 0.00 85 1014.3
20260905075956 78 176 0.0 0.0 0.00 0.00 0.00 86 1014.4
20260905075451 78 176 0.0 0.0 0.00 0.00 0.00 85 1014.4
20260905074950 79 169 0.0 0.0 0.00 0.00 0.00 83 1014.1
20260905074446 79 169 0.0 0.0 0.00 0.00 0.00 82 1014.0
20260905073941 79 169 0.0 0.0 0.00 0.00 0.00 82 1014.1
20260905073436 79 169 0.0 0.0 0.00 0.00 0.00 81 1014.4
20260905072932 79 169 0.0 0.0 0.00 0.00 0.00 81 1014.5
20260905072426 79 185 0.0 0.0 0.00 0.00 0.00 82 1014.5
20260905071917 79 191 0.0 0.0 0.00 0.00 0.00 82 1014.5
20260905071414 79 191 0.0 0.0 0.00 0.00 0.00 83 1014.5
20260905070913 78 191 0.0 0.0 0.00 0.00 0.00 83 1014.4
20260905070409 78 189 0.0 0.0 0.00 0.00 0.00 85 1014.4
20260905065909 79 187 0.0 0.0 0.00 0.00 0.00 85 1014.8
20260905065407 79 187 0.0 0.0 0.00 0.00 0.00 84 1014.4
20260905064903 79 187 0.0 0.0 0.00 0.00 0.00 82 1014.6
20260905064358 79 190 0.0 0.0 0.00 0.00 0.00 81 1014.5
20260905063856 79 198 0.0 0.0 0.00 0.00 0.00 82 1014.7
20260905063352 79 187 0.0 0.0 0.00 0.00 0.00 83 1014.4
20260905062848 79 187 0.0 0.0 0.00 0.00 0.00 83 1014.6
20260905062343 79 187 0.0 0.0 0.00 0.00 0.00 83 1014.5
20260905061837 79 187 0.0 0.0 0.00 0.00 0.00 83 1014.6
20260905061332 79 187 0.0 0.0 0.00 0.00 0.00 82 1015.0
20260905060826 79 187 0.0 0.0 0.00 0.00 0.00 81 1014.7
20260905060323 79 187 0.0 0.0 0.00 0.00 0.00 81 1014.9
20260905055822 80 187 0.0 0.0 0.00 0.00 0.00 83 1014.7
20260905055317 80 188 1.0 1.0 0.00 0.00 0.00 82 1014.7
20260905054817 80 188 0.0 0.0 0.00 0.00 0.00 82 1014.6
20260905054313 80 188 0.0 0.0 0.00 0.00 0.00 82 1014.7
20260905053812 80 188 0.0 0.0 0.00 0.00 0.00 82 1014.5
20260905053308 80 189 0.0 0.0 0.00 0.00 0.00 82 1015.0
20260905052808 80 189 0.0 0.0 0.00 0.00 0.00 82 1014.8
20260905052306 81 188 0.0 0.0 0.00 0.00 0.00 81 1014.7
20260905051802 81 188 0.0 0.0 0.00 0.00 0.00 78 1015.1
20260905051258 81 188 0.0 0.0 0.00 0.00 0.00 78 1014.7
20260905050755 82 185 0.0 0.0 0.00 0.00 0.00 80 1014.7
20260905050251 82 185 0.0 0.0 0.00 0.00 0.00 78 1014.6
20260905045745 82 199 1.0 1.0 0.00 0.00 0.00 75 1014.6
20260905045241 80 214 1.0 1.0 0.00 0.00 0.00 78 1014.7
20260905044735 80 186 0.0 0.0 0.00 0.00 0.00 81 1014.9
20260905044231 80 177 0.0 0.0 0.00 0.00 0.00 81 1014.8
20260905043729 80 177 0.0 0.0 0.00 0.00 0.00 81 1014.7
20260905043224 81 177 0.0 0.0 0.00 0.00 0.00 80 1014.9
20260905042719 81 177 0.0 0.0 0.00 0.00 0.00 80 1014.9
20260905042218 81 177 0.0 0.0 0.00 0.00 0.00 79 1014.9
20260905041714 81 177 0.0 0.0 0.00 0.00 0.00 78 1014.9
20260905041209 81 177 0.0 0.0 0.00 0.00 0.00 78 1014.6
20260905040704 82 177 0.0 0.0 0.00 0.00 0.00 78 1014.8
20260905040203 82 177 0.0 0.0 0.00 0.00 0.00 76 1014.9
20260905035703 82 177 0.0 0.0 0.00 0.00 0.00 76 1014.7
20260905035200 82 177 0.0 0.0 0.00 0.00 0.00 75 1014.8
20260905034656 82 176 0.0 0.0 0.00 0.00 0.00 75 1014.9
20260905034155 82 176 0.0 0.0 0.00 0.00 0.00 76 1014.9
20260905033654 82 185 0.0 1.0 0.00 0.00 0.00 76 1014.8
20260905033150 82 177 0.0 0.0 0.00 0.00 0.00 76 1015.1
20260905032649 82 177 0.0 0.0 0.00 0.00 0.00 76 1014.9
20260905032144 82 170 0.0 0.0 0.00 0.00 0.00 75 1015.2
20260905031640 82 170 0.0 1.0 0.00 0.00 0.00 76 1015.1
20260905031135 82 173 0.0 0.0 0.00 0.00 0.00 76 1015.0
20260905030630 82 170 0.0 0.0 0.00 0.00 0.00 77 1015.1
20260905030126 82 164 0.0 1.0 0.00 0.00 0.00 77 1015.0
20260905025620 82 164 0.0 1.0 0.00 0.00 0.00 76 1015.0
20260905025116 82 165 0.0 0.0 0.00 0.00 0.00 75 1014.9
20260905024612 83 164 1.0 1.0 0.00 0.00 0.00 76 1014.8
20260905024107 83 172 0.0 0.0 0.00 0.00 0.00 75 1014.8
20260905023602 83 184 0.0 0.0 0.00 0.00 0.00 74 1014.7
20260905023056 83 184 0.0 0.0 0.00 0.00 0.00 74 1014.9
20260905022555 83 184 0.0 0.0 0.00 0.00 0.00 76 1014.9
20260905022051 83 184 0.0 0.0 0.00 0.00 0.00 77 1015.0
20260905021550 84 184 0.0 0.0 0.00 0.00 0.00 76 1014.9
20260905021046 84 181 0.0 0.0 0.00 0.00 0.00 75 1014.8
20260905020545 84 180 0.0 0.0 0.00 0.00 0.00 73 1014.9
20260905020041 84 180 0.0 0.0 0.00 0.00 0.00 72 1014.8
20260905015539 84 180 0.0 0.0 0.00 0.00 0.00 73 1014.7
20260905015034 85 177 0.0 0.0 0.00 0.00 0.00 72 1014.7
20260905014528 85 176 0.0 0.0 0.00 0.00 0.00 70 1014.4
20260905014024 85 176 0.0 0.0 0.00 0.00 0.00 70 1014.5
20260905013520 85 177 0.0 0.0 0.00 0.00 0.00 70 1014.3
20260905013016 85 177 0.0 0.0 0.00 0.00 0.00 71 1014.4
20260905012515 85 177 0.0 0.0 0.00 0.00 0.00 70 1014.5
20260905012013 85 177 0.0 0.0 0.00 0.00 0.00 70 1014.0
20260905011508 86 177 0.0 0.0 0.00 0.00 0.00 69 1014.4
20260905011004 86 177 0.0 0.0 0.00 0.00 0.00 67 1014.3
20260905010503 86 177 0.0 0.0 0.00 0.00 0.00 67 1014.3
20260905005959 86 177 0.0 0.0 0.00 0.00 0.00 64 1014.3
20260905005455 86 177 0.0 0.0 0.00 0.00 0.00 65 1014.1
20260905004950 86 177 0.0 0.0 0.00 0.00 0.00 67 1014.2
20260905004445 87 177 0.0 0.0 0.00 0.00 0.00 63 1014.0
20260905003940 87 175 0.0 0.0 0.00 0.00 0.00 65 1014.1
20260905003436 87 174 0.0 0.0 0.00 0.00 0.00 66 1014.2
20260905002932 88 172 0.0 0.0 0.00 0.00 0.00 65 1014.0
20260905002432 88 172 0.0 0.0 0.00 0.00 0.00 66 1014.1
20260905001925 88 177 0.0 0.0 0.00 0.00 0.00 65 1014.1
20260905001420 89 174 0.0 0.0 0.00 0.00 0.00 65 1014.3
20260905000915 89 170 0.0 0.0 0.00 0.00 0.00 66 1014.1
20260905000411 89 169 0.0 0.0 0.00 0.00 0.00 67 1014.2
20260904235906 90 169 0.0 0.0 0.00 0.00 0.00 66 1014.1
20260904235401 90 165 0.0 0.0 0.00 0.00 0.00 65 1014.1
20260904234856 91 168 0.0 0.0 0.00 0.00 0.00 62 1014.0
20260904234350 92 169 0.0 0.0 0.00 0.00 0.00 63 1014.0
20260904233846 92 169 0.0 0.0 0.00 0.00 0.00 61 1013.9
20260904233342 93 169 0.0 0.0 0.00 0.00 0.00 57 1014.0
20260904232839 93 180 0.0 0.0 0.00 0.00 0.00 57 1013.8
20260904232335 94 177 0.0 0.0 0.00 0.00 0.00 56 1013.9
20260904231831 95 177 0.0 0.0 0.00 0.00 0.00 55 1013.7
20260904231330 95 177 0.0 0.0 0.00 0.00 0.00 56 1013.7
20260904230826 96 177 0.0 0.0 0.00 0.00 0.00 52 1013.8
20260904230325 96 176 0.0 0.0 0.00 0.00 0.00 49 1014.2
20260904225820 97 173 0.0 0.0 0.00 0.00 0.00 49 1013.7
20260904225318 97 187 0.0 0.0 0.00 0.00 0.00 47 1013.8
20260904224818 98 197 1.0 1.0 0.00 0.00 0.00 45 1013.7
20260904224314 97 177 0.0 0.0 0.00 0.00 0.00 51 1013.5
20260904223812 97 177 0.0 0.0 0.00 0.00 0.00 52 1013.7
20260904223307 97 162 0.0 1.0 0.00 0.00 0.00 49 1013.6
20260904222804 98 171 0.0 0.0 0.00 0.00 0.00 44 1013.7
20260904222258 98 170 0.0 0.0 0.00 0.00 0.00 44 1013.5
20260904221753 98 184 0.0 0.0 0.00 0.00 0.00 49 1013.8
20260904221247 98 190 0.0 0.0 0.00 0.00 0.00 49 1013.6
20260904220743 98 193 1.0 1.0 0.00 0.00 0.00 44 1013.5
20260904220242 98 208 1.0 1.0 0.00 0.00 0.00 45 1013.8
20260904215737 98 194 0.0 1.0 0.00 0.00 0.00 47 1013.9
20260904215233 98 176 1.0 1.0 0.00 0.00 0.00 45 1013.8
20260904214728 97 192 1.0 1.0 0.00 0.00 0.00 46 1014.0
20260904214224 97 191 1.0 1.0 0.00 0.00 0.00 48 1014.0
20260904213722 97 177 0.0 0.0 0.00 0.00 0.00 48 1014.1
20260904213219 97 188 2.0 2.0 0.00 0.00 0.00 52 1014.0
20260904212719 97 185 0.0 1.0 0.00 0.00 0.00 52 1014.3
20260904212214 96 250 1.0 1.0 0.00 0.00 0.00 45 1014.2
20260904211713 95 125 0.0 0.0 0.00 0.00 0.00 51 1014.4
20260904211208 96 186 0.0 0.0 0.00 0.00 0.00 54 1014.6
20260904210703 96 193 0.0 1.0 0.00 0.00 0.00 48 1014.7
20260904210158 98 189 2.0 2.0 0.00 0.00 0.00 45 1014.6
20260904205654 99 189 1.0 1.0 0.00 0.00 0.00 48 1014.6
20260904205150 99 204 1.0 1.0 0.00 0.00 0.00 44 1014.4
20260904204646 100 173 2.0 2.0 0.00 0.00 0.00 45 1014.5
20260904204141 101 179 0.0 1.0 0.00 0.00 0.00 41 1014.4
20260904203637 100 179 1.0 1.0 0.00 0.00 0.00 43 1014.7
20260904203134 99 179 0.0 0.0 0.00 0.00 0.00 51 1015.0
20260904202629 100 169 1.0 1.0 0.00 0.00 0.00 41 1014.9
20260904202126 99 162 2.0 2.0 0.00 0.00 0.00 44 1015.0
20260904201620 99 171 0.0 1.0 0.00 0.00 0.00 51 1015.1
20260904201115 102 210 1.0 2.0 0.00 0.00 0.00 41 1015.0
20260904200615 103 189 1.0 1.0 0.00 0.00 0.00 42 1015.2
20260904200110 98 196 0.0 0.0 0.00 0.00 0.00 49 1015.4